Regional Weather Roundup
Issued by NWS Wakefield, VA

Home | Current Version | Previous Version | Graphics & Text | Print | Product List | Glossary On
Versions: 1 2 3 4 5 6 7 8 9 10 11 12 13 14 15 16 17 18 19 20 21 22 23 24 25 26 27 28 29 30 31 32 33 34 35 36 37 38 39 40 41 42 43 44 45 46 47 48 49 50
000
ASUS41 KAKQ 301015
RWRAKQ

REGIONAL WEATHER ROUNDUP
NATIONAL WEATHER SERVICE WAKEFIELD VA
600 AM EDT SAT MAY 30 2015

Note: "fair" indicates few or no clouds below 12,000 feet with no
significant weather and/or obstructions to visibility. * = Denotes
station may not report precipitation (e.g., rain,snow,etc.),
thunder or fog.

VAZ042-051-052>054-056-301100-
NORTHERN VIRGINIA

CITY           SKY/WX    TMP DP  RH WIND       PRES   REMARKS
WASH NATIONAL  PTCLDY    73  67  81 S10       30.19S
DULLES         MOCLDY    68  67  96 S5        30.18S
FORT BELVOIR   PTCLDY    69  66  90 SE2       30.19R
QUANTICO       MOCLDY    71  66  84 SW8       30.20R
FREDERICKSBRG* CLEAR     69  69 100 CALM      30.19R
STAFFORD*      MOCLDY    65  64  97 CALM      30.23S FOG
WARRENTON      CLOUDY    64  64 100 CALM      30.18S FOG
CULPEPER*      FOG       62  62 100 CALM      30.19S VSB 1/2
MANASSAS*      CLEAR     64  64 100 SE3       30.19R
LEESBURG*      CLOUDY    68  68 100 S6        30.19S
WINCHESTER     MOCLDY    68  66  94 CALM      30.17S FOG
FRONT ROYAL*   PTSUNNY   63  63 100 CALM      30.16S
LURAY*         CLOUDY    64  64 100 CALM      30.19R FOG
$$

VAZ048-049-060>072-079>083-301100-
CENTRAL AND SOUTH CENTRAL VIRGINIA

CITY           SKY/WX    TMP DP  RH WIND       PRES   REMARKS
RICHMOND       PTCLDY    68  65  90 S3        30.20R
CHESTERFIELD*  NOT AVBL
PETERSBURG*    FOG       66  66 100 CALM      30.21R VSB 3/4
HANOVER        CLEAR     66  65  96 CALM      30.21R
TAPPAHANNOCK*  CLEAR     67  64  88 CALM      30.21R
QUINTON*       FAIR      68  67  96 CALM      30.20R
CHARLOTTSVILLE CLOUDY    68  66  93 SW5       30.19R FOG
GORDONSVILLE*  FAIR      64  64  99 CALM      30.19R FOG
ORANGE*        CLEAR     64  64 100 CALM      30.21R
LOUISA*        CLEAR     66  64  94 CALM      30.19R
BUMPASS*       PTSUNNY   66  65  97 CALM      30.20R
FARMVILLE*     CLEAR     65  65 100 CALM      30.19R FOG
CREWE*           N/A     63  61  96 CALM      30.20S VSB 1/2
FORT PICKETT*    N/A     63  63  98 CALM      30.20S
CHASE CITY*    FAIR      65  65 100 CALM      30.20S
CLARKSVILLE*   FAIR      64  64 100 CALM      30.20R
SOUTH HILL*    CLEAR     64  64  99 CALM      30.27R
LAWRENCEVILLE* FAIR      64  64 100 CALM      30.21R
EMPORIA*       CLOUDY    63  61  94 CALM      30.23R
$$

VAZ088>098-301100-
SOUTHEAST VIRGINIA

CITY           SKY/WX    TMP DP  RH WIND       PRES   REMARKS
NORFOLK        CLEAR     69  66  90 CALM      30.21R
VIRGINIA BEACH MOCLDY    70  67  90 CALM      30.21R
NORFOLK NAVAL  PTCLDY    73  67  81 SE3       30.23R
WEST POINT*    CLEAR     72  68  88 S3        30.22R
SALUDA*        PTSUNNY   65  64  98 CALM      30.21R VSB 1/4
NEWPORT NEWS   HAZE      69  64  84 CALM      30.21R VSB 1/4
LANGLEY AFB    CLEAR     70  69  96 SE3       30.21R
FORT EUSTIS    CLEAR     70  70 100 S3        30.19R FOG
WILLIAMSBURG*  CLEAR     72  70  94 S6        30.22R
HR EXEC AP*    PTSUNNY   61  57  88 CALM      30.23R VSB<1/4
FRANKLIN*      CLOUDY    65  64  98 CALM      30.22R
WAKEFIELD      CLOUDY    65  63  93 CALM      30.21S FOG
$$

VAZ020-022-025-037-045-301100-
WEST CENTRAL AND SOUTHWEST VIRGINIA

CITY           SKY/WX    TMP DP  RH WIND       PRES   REMARKS
STAUNTON*      CLOUDY    67  65  94 CALM      30.22R
WAYNESBORO*    FAIR      64  63  97 CALM      30.21S
HOT SPRINGS VA CLOUDY    63  57  82 SW9       30.28S
LYNCHBURG      CLEAR     61  61 100 CALM      30.21R
DANVILLE       CLEAR     62  59  90 CALM      30.20R
SOUTH BOSTON*  FAIR      60  59  95 CALM      30.20R
MARTINSVILLE   CLEAR     59  59 100 CALM      30.23R FOG
ROANOKE        PTCLDY    64  64 100 CALM      30.22S FOG
BLACKSBURG     FOG       60  59  97 CALM      30.26S VSB 1/2
DUBLIN*        FOG       62  62 100 CALM      30.25R VSB 1/4
MARION*        FOG       62  60  94 CALM      30.28R VSB 1
HILLSVILLE*    MOCLDY    60  59  98 SE3       30.28R FOG
RICHLANDS*     FAIR      66  60  81 S5        30.24S
WISE*          CLEAR     61  61 100 S5        30.24R
ABINGDON*      CLEAR     62  62  99 CALM      30.22S
$$

MDZ021>025-VAZ099-100-301100-
SOUTHERN MARYLAND AND THE DELMARVA PENINSULA

CITY           SKY/WX    TMP DP  RH WIND       PRES   REMARKS
PATUXENT RIVER CLEAR     69  67  93 CALM      30.20R
BAY BRIDGE APT   N/A    N/A N/A N/A S6        30.20R
LEONARDTOWN    CLEAR     68  64  88 S3        30.22R
DOVER          CLEAR     66  66 100 S6        30.18R
GEORGETOWN     CLOUDY    66  66 100 S5        30.22R
EASTON         MOCLDY    68  68 100 S3        30.24R FOG
CAMBRIDGE      MOCLDY    64  63  94 SE3       30.20R
SALISBURY      FOG       62  62 100 SE3       30.22R VSB 1/4
OCEAN CITY     CLOUDY    67  66  97 SW5       30.23R FOG
WALLOPS ISLAND PTCLDY    66  66 100 S6        30.23R
ACCOMACK*      CLEAR     66  66 100 CALM      30.22R FOG
$$

NCZ012>017-030>032-301100-
NORTH CENTRAL AND EASTERN NORTH CAROLINA

CITY           SKY/WX    TMP DP  RH WIND       PRES   REMARKS
ROANOKE RAPIDS FAIR      63  63 100 CALM      30.21R FOG
RALEIGH        PTCLDY    67  64  90 CALM      30.21R
ELIZABETH CITY PTCLDY    66  66 100 CALM      30.22R
AHOSKIE*       CLEAR     62  62  98 CALM      30.22R FOG
EDENTON*       PTCLDY    66  64  94 CALM      30.22R
CURRITUCK*     FOG       69  67  94 CALM      30.22R VSB 1/2
KILL DEVIL HLS MOCLDY    70  65  85 CALM      30.21R
MANTEO         MOCLDY    67  65  93 CALM      30.22R
CAPE HATTERAS  CLEAR     69  63  81 CALM      30.21R
TARBORO*       FAIR      64  63  96 CALM      30.22R FOG
GOLDSBORO      CLOUDY    68  66  96 CALM      30.18R
WASHINGTON     CLEAR     65  63  96 CALM      30.21R
GREENVILLE     PTCLDY    64  64 100 CALM      30.22R
NEW BERN       PTCLDY    65  62  90 CALM      30.21R
WILMINGTON     PTCLDY    67  65  93 CALM      30.18R
$$

VAZ048-301100-
ELSEWHERE

CITY           SKY/WX    TMP DP  RH WIND       PRES   REMARKS
HARRISBURG PA  PTCLDY    70  64  81 S5        30.16R
BALTIMORE      MOCLDY    69  66  90 CALM      30.18S
ANNAPOLIS      CLOUDY    70  66  87 S6        30.19R
ANDREWS AFB    PTCLDY    66  66  99 S5        30.19R
PHILADELPHIA   MOCLDY    68  65  90 SE3       30.21R
HENDERSON NC   CLEAR     65  63  91 S3        30.21R
GREENSBORO     MOCLDY    64  63  94 S3        30.21R
ROCKY MOUNT    CLEAR     67  66  97 CALM      30.21R
$$

VAZ100-301100-
MARINE

STATION/POSITION TIME  TEMP    WIND        PRES    WAVE   SWELL
                       AIR SEA DIR/SP/G            HT/PER HT/PER
                 (UTC) (F)     (DEG/KT/KT) (MB)    (FT/S) (FT/S)
BRANDYWINE LGT   0900   66 66  190/  9/  9 1023.0R
CAPE MAY NJ      0900   64 68  150/  4/  6 1022.6F
LEWES DE         0900   68 63  190/  4/  5 1022.7R
15NM E FENWICK I 0950   66 65              1023.1R   3/ 9
OCEAN-CITY-INLET 0900   65 59  200/  6/  8 1022.8R
WACHAPREAGUE VA  0900   69 76  200/  7/  8 1023.0R
THOMAS POINT MD  1000   70 71  190/  9/ 10 1023.0R
GOOSES REEF MD   1000   71 72  200/ 10/ 12 1023.5R   1/ 3
COVE POINT MD    0900   70     190/  9/ 11 1023.0R
SOLOMONS ISLAND  0900      72                N/A
BISHOPS HEAD MD  0900   72 76  190/ 12/ 13 1022.3R
PINEY POINT MD   0900          180/ 10/ 11   N/A
CAMBRIDGE MD     0900   68 75  120/  2/  3 1022.2S
LEWISETTA VA     0900   70 76              1022.1R
RAPPAHANNOCK LGT 0900          160/  9/ 11 1023.3R
STINGRAY PT      1000   72 73  170/  8/ 10 1022.6R   1/ 2
YORK RVR RNG VA  0900   72     200/  6/  7 1022.1R
YORKTOWN VA      0900   69 74   CALM  /  2 1022.4R
JAMESTOWN VA     1000   70 77  150/  6/  8   N/A
DOMINION TERM VA 0900   72     180/  5/  6 1022.8R
KIPTOPEKE VA     0900      77  150/  5/  6   N/A
CHES BAY BRIDGE  0900   71 66  140/  3/  4 1022.3S
CAPE HENRY VA    0900   68     140/  4/  5 1021.5S
CHESAPEAKE LGHT  0900   69     160/  9/  9 1023.5R
WILLOUBY STN VA  0900   71     160/  4/  5 1023.4R
CAPE HENRY BUOY  0928      65                N/A     3/ 9
1ST LANDING BUOY 1000      71              1022.8R
CAPE CHARLES BUO 0926      69                N/A     3/ 9   3/ 9
OFFSHORE WE BUOY 0911      68                N/A     3/10   3/10
64NM E OF VA BCH 0950   69 66  120/  4/  4 1023.0R   3/ 9   3/ 9
DUCK PIER NC     0900   68 58  100/  5/  5 1021.9R
44100 DUCK FRF   0924      74                N/A     3/ 9
44056 DUCK FRF   0911      64                N/A     3/ 9
OREGON INLET NC  0900   72 76  130/  4/  5 1022.7R
HATTERAS NC      0900   74 78  130/  4/  5 1022.1R
DIAMOND SHLS NC  0950   75 79  130/  8/ 10 1022.7R   4/ 9   3/ 9
CAPE LOOKOUT NC  1000   74      80/  3/  3 1022.2R
$$



USA.gov is the U.S. government's official web portal to all federal, state and local government web resources and services.